Regional Weather Roundup
Issued by NWS

Home | Current Version | Previous Version | Text Only | Print | Product List | Glossary On
Versions: 1 2 3 4 5 6 7 8 9 10 11 12 13 14 15 16 17 18 19 20 21 22 23 24 25 26 27 28 29 30 31 32 33 34 35 36 37 38 39 40 41 42 43 44 45 46 47 48 49 50
000
ASHW40 PHFO 231443
RWRHI

WEATHER ROUNDUP FOR HAWAII
NATIONAL WEATHER SERVICE HONOLULU HI
400 AM HST TUE MAY 23 2017

THIS IS AN AUTOMATED REPORT THAT HAS NOT BEEN QUALITY CONTROLLED.

NOTE..."FAIR" INDICATES FEW OR NO CLOUDS BELOW 12,000 FEET WITH NO
SIGNIFICANT WEATHER AND/OR OBSTRUCTIONS TO VISIBILITY.

* - THESE SITES REPORT LIMITED FIELDS

HIZ001>004-231500-
KAUAI-NIIHAU-

CITY           SKY/WX    TMP DP  RH WIND       PRES   REMARKS
LIHUE APT      PTCLDY    76  65  68 NE18      30.06F
PORT ALLEN*      N/A     73 N/A N/A E15G21      N/A
POIPU*           N/A     75 N/A N/A NE9G18      N/A
PRINCEVILLE*     N/A     72 N/A N/A SE5         N/A
KOKOLE POINT*  NOT AVBL
MOLOAA DAIRY*    N/A     73  63  68 E6G12       N/A
WAIMEA HTS*      N/A     73  57  56 E8G15       N/A
PUU OPAE*      NOT AVBL
PUU LUA*       NOT AVBL
MAKAHA RIDGE*    N/A     66  52  59 CALM        N/A
$$

HIZ005>011-231500-
OAHU-

CITY           SKY/WX    TMP DP  RH WIND       PRES   REMARKS
HONOLULU       MOCLDY    71  65  81 NE10      30.03S
KALAELOA       LGT RAIN  73  66  78 NE3       30.05S
KANEOHE MCB    NOT AVBL
WHEELER FIELD  DRIZZLE   68  66  94 N5        30.04S
BELLOWS*         N/A    N/A N/A N/A NE22G30     N/A
KAHUKU*          N/A    N/A N/A N/A NE8G20      N/A
WHEELER*         N/A    N/A N/A N/A E1          N/A
WAIANAE HARBOR   N/A    N/A N/A N/A E7G14       N/A
DILLINGHAM*      N/A     84  79  84 W1          N/A  HX  96
KAHUKU TRN*      N/A     81  79  94 W9G23       N/A
KAWAILOA*        N/A     68  64  88 NE12G25     N/A
KII*             N/A     75  68  78 E21G31      N/A
MAKUA RANGE*     N/A     73  66  78 SW5G16      N/A
OAHU FOREST NW   N/A     66  63  88 E13G35      N/A
SCHOFIELD BRK*   N/A     68  66  94 MISG        N/A
SCHOFIELD S*   NOT AVBL
WAIANAE VLY*     N/A     70  68  94 SW3G17      N/A
KUAOKALA*        N/A     70  64  83 E13G25      N/A
HONOULIUULI*   NOT AVBL
MOKUOLOE IS*   NOT AVBL
PALEHUA*         N/A     63  63 100 NE12G24     N/A
WAIAWA PHB*    NOT AVBL
$$

HIZ012>013-231500-
MOLOKAI-

CITY           SKY/WX    TMP DP  RH WIND       PRES   REMARKS
MOLOKAI AIRPT  MOCLDY    72  69  90 NE9       30.04S
KALAUPAPA      NOT AVBL
MAKAPULAPAI*     N/A     73  68  83 E17G25      N/A
MOLOKAI 1*       N/A     63  57  82 E3G13       N/A
PUU ALII*        N/A     57  57 100 N3G24       N/A
$$

HIZ016-231500-
KAHOOLAWE-

CITY           SKY/WX    TMP DP  RH WIND       PRES   REMARKS
KAHOOLAWE*     NOT AVBL
HAKIOAWA*        N/A     69  61  75 MISG      30.42S
HONOKANAIA*      N/A     75  65  70 NE10G26   29.96S
KANELOA*         N/A     72  61  68 E17G35    30.06F
KEALIALALO*    NOT AVBL
LUA MAKIKA*    NOT AVBL
$$

HIZ014>015-231500-
LANAI-

CITY           SKY/WX    TMP DP  RH WIND       PRES   REMARKS
LANAI CITY     FAIR      68  63  84 E12       30.06S
LANAI 1*         N/A     68  64  88 NE12        N/A
$$

HIZ017>028-231500-
MAUI-

CITY           SKY/WX    TMP DP  RH WIND       PRES   REMARKS
KAHULUI        PTCLDY    72  64  76 NE8       30.02F
KAPALUA-W MAUI NOT AVBL
HANA AIRPORT   MOCLDY    72  66  83 E5        30.07S
HANA*            N/A     70 N/A N/A S1          N/A
HALEAKALA SUMM   N/A     39  28  65 E28         N/A  WCI  28
MAALAEA BAY*     N/A     73 N/A N/A N18G26      N/A
HALEAKALA*     NOT AVBL
KAUPO GAP*     NOT AVBL
KULA 1*          N/A     45  41  87 E3          N/A
$$

HIZ023>026-231500-
BIG ISLAND OF HAWAII COAST AND LOWER SLOPES-

CITY           SKY/WX    TMP DP  RH WIND       PRES   REMARKS
KAILUA KONA    CLEAR     74  60  61 NE5       29.95F
HILO           CLOUDY    66  63  90 W7        30.03S
HONOKAA*         N/A     66 N/A N/A VRB1        N/A
KAWAIHAE MWT*    N/A     79 N/A N/A E16G25      N/A
KAWAIHAE*        N/A     75 N/A N/A E10       29.97R
SOUTH POINT*     N/A     70 N/A N/A N14         N/A
UPOLU AIRPORT* NOT AVBL
KAMUELA*       NOT AVBL
HAKALAU*         N/A     37  32  81 SW3         N/A
KALOKO-HONOKO* NOT AVBL
PALI 2*          N/A     63  50  63 S17G29      N/A
KEALAKOMO*       N/A     75  59  57 N22G32      N/A
KAUPULEHU*       N/A     66  57  72 SE6         N/A
KAPAPALA*        N/A     64  45  49 N5G21       N/A
LOWER KAHUKU*    N/A     54  50  87 N2          N/A
PUHE CS*         N/A     75  55  50 E12G25      N/A
PUHO CS*         N/A     71  59  64 E3          N/A
PTA KEAMUKU*     N/A     57  45  62 CALM        N/A
WAIKOLOA*        N/A     72  57  60 E15G28      N/A
$$

HIZ027>028-231500-
BIG ISLAND OF HAWAII INTERIOR AND SUMMMITS-

CITY           SKY/WX    TMP DP  RH WIND       PRES   REMARKS
BRADSHAW FIELD CLOUDY    45  34  65 SE5       30.27F
MK VISITOR CEN   N/A     54 -15   5 N22         N/A
MAUNA KEA*       N/A     37 -18   8 NE6G18      N/A
MAUNA LOA*       N/A     43 -33   3 MISG        N/A
MAUNA LOA 1*   NOT AVBL
PTA KIPUKA*      N/A     70  70 100 E3          N/A
PTA RANGE 17*    N/A     66  48  52 E15G26      N/A
PTA WEST*        N/A     73  59  60 S9G16       N/A
NENE CABIN*      N/A    N/A N/A N/A NE7G13      N/A
AHUMOA*          N/A     45  34  65 SE7         N/A
PTA PORTABLE*  NOT AVBL
PUU MALI*        N/A     52  14  22 E18G35      N/A
$$

HIC003-231500-
NORTHWEST ISLANDS-

CITY           SKY/WX    TMP DP  RH WIND       PRES   REMARKS
MIDWAY ISLAND  NOT AVBL
MIDWAY NOS*      N/A     70 N/A N/A MISG      30.26S
FRENCH FRIGATE NOT AVBL
$$

PHZ110>124-180-231500-
BUOY REPORTS

STATION/POSITION TIME  TEMP    WIND        PRES    WAVE   SWELL
                       AIR SEA DIR/SP/G            HT/PER HT/DIR
                 (UTC) (F)     (DEG/KT/KT) (MB)    (FT/S) (FT/D)
BUOY 51001       1430   75 77   60/ 21/ 27 1019.4S
BUOY 51101       1350   75 77   50/ 21/ 25 1019.6F   9/ 8   5/350
BUOY 51100       NOT AVBL
BUOY 51002       1420   76 78   70/ 17/ 23 1013.5
BUOY 51003       1350   78 79   40/ 17/ 19 1014.3F   8/ 9   5/ 30
BUOY 51004       1350      78   60/ 19/ 21 1013.6F   7/ 7   3/290
BARBERS PT BUOY  NOT AVBL
WAIMEA BAY BUOY  1402      78                N/A     7/11   5/330
KAILUA BAY BUOY  1404      79                N/A     8/ 7   3/360
LANAI BUOY       NOT AVBL
BARBERS PT 2     NOT AVBL
PAUWELA MAUI     1409      78                N/A     7/12   3/340
HILO             NOT AVBL
KANEOHE BAY BUOY 1425      79                N/A     8/ 8   3/330
HANALEI KAUAI    1422      79                N/A     8/ 8   3/330
KAHULUI HARBOR   1406   75 79   60/  8/ 11 1016.7
HONOLULU HARBOR  1406   74 79   60/  7/ 17 1017.7
KILO NALU        NOT AVBL
HILO HARBOR      1406   68 77  220/  5/  8 1016.5
MOKUOLOE         1336   74 79   70/ 12/ 15 1017.3S
NAWILIWILI       1406   76 81   50/ 12/ 15 1017.4
WHOTS BUOY       NOT AVBL
BUOY 51028       NOT AVBL
$$

......................KEY........................................
  SKY/WX - SKY CONDITIONS/PRESENT WEATHER
  TMP    - TEMPERATURE IN FAHRENHEIT
  DWPT   - DEWPOINT IN FAHRENHEIT
  RH     - RELATIVE HUMIDITY IN PERCENT
  WIND   - DIRECTION AND SPEED /MPH FOR ISLANDS...KTS FOR BUOYS/
  PRES   - MEAN SEA LEVEL PRESSURE IN INCHES OF HG
  VSB    - VISIBILITY IN MILES
  HX     - HEAT INDEX
  WCI    - WIND CHILL INDEX
  VRB    - VARIABLE WIND DIRECTION
  N/A    - NOT AVAILABLE




USA.gov is the U.S. government's official web portal to all federal, state and local government web resources and services.